When you browse on this site, cookies collect data to enhance your experience and personalize the content and advertising you see.
Visit our Privacy Policy to learn more. By continuing to use the site, you agree to this use of cookies and data.
  • Em Portugal
  • Lista de países
  • Para 7 dias
  • Temperatura da água
  • Mapas de satélite
  • Mapa do tempo
  • Widgets de tempo
  • user-avatar
    Iniciar Sessão

    Previsão horária em Zagarya

    Hoje, 16 Fevereiro, Sábado

    Tempo Temperatura Precipitação Vento Pressão Humidade
    00:00 -10°C° 0.2 mm 3 m/s 737 mmHg 93%
    01:00 -10°C° 0.2 mm 3 m/s 737 mmHg 93%
    02:00 -10°C° 0.2 mm 3 m/s 736 mmHg 94%
    03:00 -9°C° 0.2 mm 2 m/s 736 mmHg 94%
    04:00 -9°C° 0.2 mm 2 m/s 735 mmHg 94%
    05:00 -9°C° 0.1 mm 2 m/s 735 mmHg 94%
    06:00 -9°C° 0.1 mm 2 m/s 735 mmHg 95%
    07:00 -9°C° 0.1 mm 2 m/s 734 mmHg 96%
    08:00 -9°C° 0.1 mm 2 m/s 734 mmHg 95%
    09:00 -8°C° 0.1 mm 2 m/s 734 mmHg 94%
    10:00 -7°C° 0.1 mm 1 m/s 734 mmHg 93%
    11:00 -6°C° 0.1 mm 1 m/s 734 mmHg 91%
    12:00 -4°C° 0.1 mm 1 m/s 734 mmHg 90%
    13:00 -4°C° 0.1 mm 1 m/s 734 mmHg 88%
    14:00 -5°C° 0.1 mm 0 m/s 735 mmHg 88%
    15:00 -5°C° 0.1 mm 0 m/s 735 mmHg 89%
    16:00 -5°C° 0.1 mm 0 m/s 735 mmHg 89%
    17:00 -6°C° 0 mm 0 m/s 735 mmHg 91%
    18:00 -7°C° 0 mm 0 m/s 736 mmHg 92%
    19:00 -8°C° 0 mm 1 m/s 736 mmHg 94%
    20:00 -9°C° 0 mm 1 m/s 736 mmHg 94%
    21:00 -9°C° 0 mm 1 m/s 736 mmHg 95%
    22:00 -9°C° 0 mm 1 m/s 736 mmHg 95%
    23:00 -9°C° 0 mm 1 m/s 736 mmHg 95%

    Amanhã, 17 Fevereiro, Domingo

    Tempo Temperatura Precipitação Vento Pressão Humidade
    00:00 -10°C° 0 mm 0 m/s 736 mmHg 95%
    01:00 -10°C° 0 mm 0 m/s 736 mmHg 95%
    02:00 -10°C° 0 mm 0 m/s 736 mmHg 95%
    03:00 -11°C° 0 mm 0 m/s 736 mmHg 95%
    04:00 -11°C° 0 mm 0 m/s 736 mmHg 94%
    05:00 -11°C° 0 mm 1 m/s 736 mmHg 95%
    06:00 -10°C° 0 mm 1 m/s 735 mmHg 95%
    07:00 -10°C° 0 mm 1 m/s 735 mmHg 95%
    08:00 -10°C° 0 mm 2 m/s 735 mmHg 95%
    09:00 -9°C° 0 mm 2 m/s 734 mmHg 94%
    10:00 -8°C° 0 mm 2 m/s 734 mmHg 94%
    11:00 -8°C° 0 mm 3 m/s 733 mmHg 93%
    12:00 -7°C° 0 mm 3 m/s 732 mmHg 91%
    13:00 -5°C° 0 mm 3 m/s 732 mmHg 90%
    14:00 -5°C° 0.1 mm 3 m/s 731 mmHg 90%
    15:00 -5°C° 0.1 mm 3 m/s 730 mmHg 89%
    16:00 -4°C° 0.1 mm 3 m/s 730 mmHg 89%
    17:00 -4°C° 0.1 mm 3 m/s 729 mmHg 89%
    18:00 -5°C° 0.1 mm 3 m/s 728 mmHg 90%
    19:00 -5°C° 0.1 mm 3 m/s 728 mmHg 90%
    20:00 -5°C° 0.2 mm 3 m/s 727 mmHg 91%
    21:00 -6°C° 0.2 mm 3 m/s 727 mmHg 91%
    22:00 -6°C° 0.2 mm 3 m/s 726 mmHg 91%
    23:00 -6°C° 0.2 mm 3 m/s 726 mmHg 91%

    Depois de amanhã, 18 Fevereiro, Segunda-feira

    Tempo Temperatura Precipitação Vento Pressão Humidade
    00:00 -6°C° 0.2 mm 3 m/s 725 mmHg 92%
    01:00 -6°C° 0.2 mm 3 m/s 725 mmHg 93%
    02:00 -7°C° 0.2 mm 3 m/s 725 mmHg 93%
    03:00 -6°C° 0.2 mm 2 m/s 724 mmHg 94%
    04:00 -6°C° 0.2 mm 2 m/s 724 mmHg 94%
    05:00 -6°C° 0.1 mm 2 m/s 724 mmHg 95%
    06:00 -4°C° 0.1 mm 1 m/s 724 mmHg 96%
    07:00 -6°C° 0.1 mm 1 m/s 724 mmHg 96%
    08:00 -4°C° 0.1 mm 1 m/s 725 mmHg 96%
    09:00 -5°C° 0.1 mm 0 m/s 725 mmHg 95%
    10:00 -5°C° 0.1 mm 0 m/s 726 mmHg 94%
    11:00 -4°C° 0.1 mm 0 m/s 726 mmHg 93%
    12:00 -2°C° 0.1 mm 1 m/s 726 mmHg 91%
    13:00 -2°C° 0.1 mm 1 m/s 727 mmHg 90%
    14:00 -2°C° 0.1 mm 1 m/s 727 mmHg 90%
    15:00 -4°C° 0.1 mm 2 m/s 728 mmHg 90%
    16:00 -4°C° 0.1 mm 2 m/s 728 mmHg 90%
    17:00 -6°C° 0 mm 3 m/s 729 mmHg 91%
    18:00 -7°C° 0 mm 3 m/s 730 mmHg 91%
    19:00 -7°C° 0 mm 3 m/s 731 mmHg 92%
    20:00 -9°C° 0 mm 4 m/s 732 mmHg 90%
    21:00 -10°C° 0 mm 5 m/s 733 mmHg 88%
    22:00 -10°C° 0 mm 6 m/s 734 mmHg 87%
    23:00 -11°C° 0 mm 6 m/s 734 mmHg 86%

    19 Fevereiro, Terça-feira

    Tempo Temperatura Precipitação Vento Pressão Humidade
    00:00 -14°C° 0 mm 6 m/s 735 mmHg 85%
    01:00 -15°C° 0 mm 6 m/s 736 mmHg 85%
    02:00 -16°C° 0 mm 6 m/s 737 mmHg 83%
    03:00 -17°C° 0 mm 5 m/s 738 mmHg 80%
    04:00 -18°C° 0 mm 5 m/s 739 mmHg 78%
    05:00 -19°C° 0 mm 5 m/s 740 mmHg 80%
    06:00 -19°C° 0 mm 4 m/s 740 mmHg 82%
    07:00 -19°C° 0 mm 3 m/s 741 mmHg 84%
    08:00 -18°C° 0 mm 3 m/s 742 mmHg 87%
    09:00 -18°C° 0 mm 3 m/s 742 mmHg 89%
    10:00 -17°C° 0 mm 2 m/s 742 mmHg 92%
    11:00 -15°C° 0 mm 2 m/s 742 mmHg 91%
    12:00 -14°C° 0 mm 2 m/s 742 mmHg 90%
    13:00 -10°C° 0 mm 1 m/s 742 mmHg 90%
    14:00 -12°C° 0 mm 2 m/s 742 mmHg 90%
    15:00 -10°C° 0 mm 2 m/s 742 mmHg 91%
    16:00 -10°C° 0 mm 2 m/s 741 mmHg 91%
    17:00 -10°C° 0.1 mm 2 m/s 741 mmHg 92%
    18:00 -12°C° 0.1 mm 2 m/s 741 mmHg 93%
    19:00 -13°C° 0.1 mm 3 m/s 741 mmHg 94%
    20:00 -13°C° 0.1 mm 3 m/s 741 mmHg 94%
    21:00 -12°C° 0.1 mm 3 m/s 741 mmHg 94%
    22:00 -10°C° 0.1 mm 2 m/s 740 mmHg 94%
    23:00 -10°C° 0 mm 2 m/s 740 mmHg 94%

    20 Fevereiro, Quarta-feira

    Tempo Temperatura Precipitação Vento Pressão Humidade
    00:00 -10°C° 0 mm 2 m/s 740 mmHg 94%
    01:00 -12°C° 0 mm 3 m/s 740 mmHg 94%
    02:00 -12°C° 0 mm 3 m/s 739 mmHg 94%
    03:00 -12°C° 0 mm 3 m/s 739 mmHg 94%
    04:00 -10°C° 0 mm 3 m/s 739 mmHg 93%
    05:00 -10°C° 0.2 mm 3 m/s 739 mmHg 93%
    06:00 -9°C° 0.2 mm 3 m/s 738 mmHg 94%
    07:00 -9°C° 0.2 mm 3 m/s 738 mmHg 94%
    08:00 -9°C° 0.4 mm 4 m/s 738 mmHg 93%
    09:00 -8°C° 0.4 mm 4 m/s 738 mmHg 93%
    10:00 -8°C° 0.4 mm 4 m/s 737 mmHg 93%
    11:00 -7°C° 0.4 mm 4 m/s 737 mmHg 93%
    12:00 -5°C° 0.4 mm 4 m/s 737 mmHg 92%
    13:00 -5°C° 0.4 mm 4 m/s 737 mmHg 92%
    14:00 -4°C° 0.2 mm 4 m/s 737 mmHg 92%
    15:00 -4°C° 0.2 mm 4 m/s 737 mmHg 92%
    16:00 -2°C° 0.2 mm 3 m/s 737 mmHg 92%
    17:00 -4°C° 0.1 mm 3 m/s 737 mmHg 92%
    18:00 -4°C° 0.1 mm 3 m/s 737 mmHg 92%
    19:00 -4°C° 0.1 mm 3 m/s 737 mmHg 93%
    20:00 -4°C° 0.2 mm 3 m/s 737 mmHg 93%
    21:00 -4°C° 0.2 mm 4 m/s 737 mmHg 92%
    22:00 -5°C° 0.2 mm 4 m/s 737 mmHg 92%
    23:00 -5°C° 0.1 mm 4 m/s 737 mmHg 92%

    21 Fevereiro, Quinta-feira

    Tempo Temperatura Precipitação Vento Pressão Humidade
    00:00 -7°C° 0.1 mm 4 m/s 736 mmHg 92%
    01:00 -8°C° 0.1 mm 4 m/s 736 mmHg 92%
    02:00 -8°C° 0.1 mm 4 m/s 736 mmHg 91%
    03:00 -8°C° 0.1 mm 4 m/s 735 mmHg 90%
    04:00 -8°C° 0.1 mm 4 m/s 735 mmHg 89%
    05:00 -9°C° 0.3 mm 4 m/s 735 mmHg 90%
    06:00 -9°C° 0.3 mm 4 m/s 734 mmHg 90%
    07:00 -10°C° 0.3 mm 5 m/s 734 mmHg 91%
    08:00 -10°C° 0.2 mm 5 m/s 734 mmHg 90%
    09:00 -8°C° 0.2 mm 5 m/s 734 mmHg 89%
    10:00 -8°C° 0.2 mm 5 m/s 734 mmHg 89%
    11:00 -7°C° 0.2 mm 5 m/s 733 mmHg 89%
    12:00 -6°C° 0.2 mm 5 m/s 733 mmHg 88%
    13:00 -6°C° 0.2 mm 6 m/s 733 mmHg 88%
    14:00 -5°C° 0.1 mm 6 m/s 733 mmHg 87%
    15:00 -5°C° 0.1 mm 5 m/s 733 mmHg 86%
    16:00 -4°C° 0.1 mm 5 m/s 733 mmHg 85%
    17:00 -4°C° 0.1 mm 5 m/s 733 mmHg 86%
    18:00 -4°C° 0.1 mm 5 m/s 733 mmHg 87%
    19:00 -4°C° 0.1 mm 5 m/s 733 mmHg 88%
    20:00 -5°C° 0.1 mm 5 m/s 733 mmHg 88%
    21:00 -5°C° 0.1 mm 5 m/s 733 mmHg 88%
    22:00 -5°C° 0.1 mm 5 m/s 733 mmHg 88%
    23:00 -5°C° 0.1 mm 5 m/s 733 mmHg 89%
    Mostrar mais